NOAA 16 DEB, 41076

Orbit data source: Space-Track

NOAA 16 DEB, 41076 is space debris in SSO originally from a launch on Thu, 21 Sep 2000 UTC launched from the Air Force Western Test Range (AFWTR). Debris objects in space refer to the collection of defunct objects orbiting the Earth. Examples of debris include non-operational satellites, rocket bodies, and fragments generated from explosions, collisions, or faulty payload assembly.

Loading next visibility...
Identifier
41076, 2000-055AK
Orbit
SSO
Country
Flag of USUS
Related business
Manufacturer
Unknown
Mission
Spacecraft
Bus & Motor
Unknown
Mass
Unknown
Launch date (UTC)
2000-09-21 (25 years ago)
Launch vehicle
Unknown
Launch site
Air Force Western Test Range (AFWTR)
Object type
Payload
Rocket body
Debris
Shape & HBR
Unknown shape, 0.1 m
Radar Cross Section
Small (<0.1 m²)

Expand to show TLE details & history
Last TLE update: 1 day ago

TLE from 1 day ago
0 NOAA 16 DEB
1 41076U 00055AK  25310.50096665  .00083324  00000-0  32225-2 0  9992
2 41076  99.1893 138.0823 0065687 149.3715 211.1377 15.23859658531829
Epoch: 2025-11-06T12:01Z
TLE epoch observation values (Epoch: 2025-11-06T12:01:23.518Z)
Latitude
-0.00009°
Longitude
-88.22406°
Altitude
535.976 km
Speed
7.573 km/s
True Right ascension
09h 12m 19s
True Declination
0° 00' 00"
Sunlit
Object was in daylight at epoch
Visualization orbit readout
Latitude
Unknown
Longitude
Unknown
Altitude
Unknown
Speed
Unknown
Apparent Right ascension
Unknown
Apparent Declination
Unknown
Sunlit
N/A
Visualization observer readout
Local Sidereal Time
13:18:17
Azimuth
Unknown
Elevation
Unknown
Doppler factor
Unknown
Orbital elements
Apogee altitude
536.381 km
Perigee altitude
446.135 km
Semi-major axis
6,869.395 km
Eccentricity
0.00657
Inclination
99.1893°
RAAN
138.0823°
Arg. of periapsis
149.3715°
True anomaly
210.75119°
Mean anomaly
211.1377°
Eccentric anomaly
210.94418°
Mean motion
3.81211 °/min
Orbital period
94.44 mins
BSTAR
0.0032225
Loading maneuver chart data...
Computing Atmospheric mass density...

Documentation

Showing up to 5 results
|